Вернуться в каталог

TJS-19

АктивенВоенныеGEO
NORAD 63924·PAYLOAD·🇨🇳 China

Запущен May 12, 2025 с Xichang Satellite Launch Center

Loading…

TLE

СвежийSource: Space-Track

Эпоха: Sep 14, 2026, 18:38 UTC

1 63924U 25097A   26257.77686295 -.00000285  00000-0  00000+0 0  9994
2 63924   3.1447 319.0197 0006069 262.9279 192.6497  1.00271339  5046

Отслеживайте TJS-19 в реальном времени с AllMySat

Download on the App Store